EW3244 Weather Reports


time (UTC)temp
F
wind
direction
speed
knots
gust
knots
rain 1hr
in
rain 24hr
in
rain mn
in
humidity
%
barometer
mb
20260502214552 60 35 1.7 5.2 0.00 0.00 0.00 48 1007.5
20260502213051 59 34 0.9 4.3 0.00 0.00 0.00 48 1007.6
20260502211550 59 17 0.9 3.5 0.00 0.00 0.00 48 1007.7
20260502210104 59 21 0.0 1.7 0.00 0.00 0.00 50 1007.9
20260502204554 59 22 0.0 4.3 0.00 0.00 0.00 50 1008.0
20260502203051 59 41 0.0 3.5 0.00 0.00 0.00 49 1008.1
20260502201552 60 38 0.0 2.6 0.00 0.00 0.00 47 1008.2
20260502200050 61 43 2.6 7.0 0.00 0.00 0.00 46 1008.2
20260502194547 61 41 0.0 3.5 0.00 0.00 0.00 45 1008.2
20260502193045 64 35 2.6 7.0 0.00 0.00 0.00 42 1008.2
20260502191555 65 33 5.2 10.4 0.00 0.00 0.00 39 1008.1
20260502190055 66 42 3.5 9.6 0.00 0.00 0.00 39 1008.1
20260502184556 67 38 5.2 9.6 0.00 0.00 0.00 38 1008.0
20260502183101 67 45 5.2 9.6 0.00 0.00 0.00 38 1007.9
20260502181546 68 50 7.0 12.2 0.00 0.00 0.00 37 1008.0
20260502163043 72 70 11.3 17.4 0.00 0.00 0.00 31 1008.0
20260502161533 72 34 9.6 16.5 0.00 0.00 0.00 31 1008.1
20260502151525 73 55 7.8 18.2 0.00 0.00 0.00 33 1008.6
20260502123007 73 51 8.7 19.1 0.00 0.00 0.00 35 1010.5
20260502121506 73 40 12.2 20.0 0.00 0.00 0.00 35 1010.9
20260502114501 73 43 8.7 20.0 0.00 0.00 0.00 37 1011.4
20260502113059 72 47 10.4 16.5 0.00 0.00 0.00 35 1011.4
20260502111606 72 25 10.4 17.4 0.00 0.00 0.00 36 1012.0
20260502110057 72 52 10.4 19.1 0.00 0.00 0.00 34 1011.9
20260502104555 72 70 10.4 17.4 0.00 0.00 0.00 36 1012.2
20260502103055 72 54 10.4 16.5 0.00 0.00 0.00 35 1012.2
20260502101554 72 40 7.0 17.4 0.00 0.00 0.00 38 1012.3
20260502071512 62 64 7.8 12.2 0.00 0.00 0.00 52 1015.0
20260502070009 61 31 7.8 12.2 0.00 0.00 0.00 52 1015.2
20260502064505 60 73 4.3 10.4 0.00 0.00 0.00 55 1015.3
20260502063003 59 50 5.2 10.4 0.00 0.00 0.00 55 1015.4
20260502061558 58 61 5.2 10.4 0.00 0.00 0.00 57 1015.6
20260502060054 57 58 4.3 7.0 0.00 0.00 0.00 60 1015.6
20260502054550 56 52 6.1 9.6 0.00 0.00 0.00 60 1015.7
20260502053056 55 34 4.3 7.8 0.00 0.00 0.00 64 1015.7
20260502051559 53 55 5.2 10.4 0.00 0.00 0.00 65 1015.8
20260502050043 52 38 3.5 6.1 0.00 0.00 0.00 67 1015.9
20260502044541 51 43 4.3 7.0 0.00 0.00 0.00 70 1016.0
20260502043040 50 45 1.7 5.2 0.00 0.00 0.00 71 1016.1
20260502041601 48 38 1.7 2.6 0.00 0.00 0.00 74 1016.0
20260502040042 47 38 0.0 2.6 0.00 0.00 0.00 74 1016.0
20260502034537 46 36 0.9 3.5 0.00 0.00 0.00 75 1016.1
20260502033050 45 31 0.9 3.5 0.00 0.00 0.00 75 1016.2
20260502031533 46 30 0.9 2.6 0.00 0.00 0.00 73 1016.3
20260502030031 46 33 0.9 2.6 0.00 0.00 0.00 72 1016.6
20260502024529 46 42 0.0 2.6 0.00 0.00 0.00 72 1016.6
20260502023027 46 33 0.0 3.5 0.00 0.00 0.00 72 1016.7
20260502021524 46 21 0.9 3.5 0.00 0.00 0.00 72 1016.8
20260502020021 47 30 0.0 2.6 0.00 0.00 0.00 71 1016.9
20260502014526 47 43 0.0 1.7 0.00 0.00 0.00 71 1017.1
20260502013016 47 45 0.0 1.7 0.00 0.00 0.00 70 1017.2
20260502011514 48 45 0.9 3.5 0.00 0.00 0.00 68 1017.3
20260502010010 49 53 0.9 5.2 0.00 0.00 0.00 67 1017.3
20260502004506 50 39 4.3 8.7 0.00 0.00 0.00 64 1017.5
20260502003003 51 51 5.2 9.6 0.00 0.00 0.00 62 1017.6
20260502001604 52 43 7.8 11.3 0.00 0.00 0.00 61 1017.7
20260502000056 52 28 7.0 12.2 0.00 0.00 0.00 60 1017.9
20260501234554 52 54 6.1 9.6 0.00 0.00 0.00 60 1018.0
20260501233105 52 46 6.1 9.6 0.00 0.00 0.00 59 1018.1
20260501231602 52 42 6.1 9.6 0.00 0.00 0.00 59 1018.2
20260501230049 52 58 4.3 7.8 0.00 0.00 0.00 59 1018.3
20260501224547 52 40 4.3 7.0 0.00 0.00 0.00 59 1018.4
20260501223109 52 45 3.5 7.8 0.00 0.00 0.00 59 1018.6
20260501221540 53 43 4.3 7.8 0.00 0.00 0.00 56 1018.6
20260501220035 54 38 3.5 7.0 0.00 0.00 0.00 55 1018.7